Hourly Data Report for June 02, 2017

BORDEN AWOS
ONTARIO

44°16'20.000" N
79°54'42.000" W
222.50 m
611B002
71534
YBN

Download Data

Hourly Data (June 2017)
Hourly Data Report for June 2, 2017
TIME
LST
Temp Definition
°C
Dew Point Definition
°C
Rel Hum Definition
%
Precip. Amount Definition
mm

Wind Dir Definition
10's deg

Wind Spd Definition
km/h
Visibility Definition
km
Stn Press Definition
kPa
Hmdx Definition


Wind Chill Definition


Weather Definition


00:00 4.8 4.1 95   25 6 14.5 98.83     LegendNANA
01:00 4.2 4.2 100   23 4 14.5 98.80     LegendNANA
02:00 4.2 3.4 94     0 14.5 98.78     LegendNANA
03:00 2.7 1.8 94   17 4 14.5 98.82     LegendNANA
04:00 2.8 2.3 96   27 4 14.5 98.85     LegendNANA
05:00 2.0 1.8 99     0 14.5 98.90     LegendNANA
06:00 3.4 3.1 98     0 14.5 98.98     LegendNANA
07:00 10.4 8.5 88   28 7 14.5 99.01     LegendNANA
08:00 13.5 5.9 60   31 17 14.5 99.07     LegendNANA
09:00 14.2 4.1 51   31 22 14.5 99.10     LegendNANA
10:00 14.6 4.0 49   34 17 14.5 99.13     LegendNANA
11:00 15.0 3.9 47   34 22 14.5 99.12     LegendNANA
12:00 16.0 4.4 46   34 19 14.5 99.11     LegendNANA
13:00 16.4 4.3 44   32 19 14.5 99.09     LegendNANA
14:00 16.5 3.4 42   36 24 14.5 99.05     LegendNANA
15:00 16.0 3.7 44   35 20 14.5 99.02     LegendNANA
16:00 16.0 3.9 44   34 20 14.5 99.03     LegendNANA
17:00 15.6 3.9 46   32 22 14.5 99.01     LegendNANA
18:00 14.9 3.1 45   35 13 14.5 99.00     LegendNANA
19:00 13.6 3.4 50   36 13 14.5 98.97     LegendNANA
20:00 11.0 4.4 64   35 6 14.5 98.96     LegendNANA
21:00 7.8 4.6 80   32 4 14.5 98.99     LegendNANA
22:00 5.5 4.0 90     0 14.5 99.04     LegendNANA
23:00 6.2 5.0 92   19 4 14.5 99.00     LegendNANA

Notes on Data Quality.

Legend

  • E = Estimated
  • M = Missing
  • NA = Not Available*
  • [empty] = Indicates an unobserved value
Date modified: